Location: Newark
(49.8410°N, 5.8117°E)
Time: 13:19:47
(UTC+00:00)

N. Korean satellite - Visible Passes

Search period start: 28 February 2021 00:00
Search period end: 10 March 2021 00:00
Orbit: 451 x 503 km, 97.2° (Epoch: 27 February)

Date Brightness Start Highest point End Pass type
(mag) Time Alt. Az. Time Alt. Az. Time Alt. Az.
28 Feb 6.5 05:11:25 10° NNE 05:14:56 84° ESE 05:18:29 10° SSW visible
01 Mar 8.0 04:44:49 10° NNE 04:48:09 39° E 04:51:30 10° S visible
02 Mar 9.3 04:18:34 10° NE 04:21:16 20° E 04:23:59 10° SE visible
03 Mar 10.1 03:53:27 10° ENE 03:54:18 11° E 03:55:08 10° ESE visible
03 Mar 6.5 05:24:30 10° N 05:28:00 67° WNW 05:31:33 10° SSW visible
04 Mar 7.2 04:57:45 10° NNE 05:01:16 57° E 05:04:47 10° S visible
05 Mar 8.7 04:31:18 10° NE 04:34:25 28° E 04:37:33 10° SSE visible
06 Mar 9.7 04:05:21 10° NE 04:07:28 15° E 04:09:36 10° SE visible
07 Mar 6.6 05:10:44 10° NNE 05:14:19 84° ESE 05:17:55 10° SSW visible
08 Mar 8.1 04:44:06 10° NNE 04:47:30 40° E 04:50:55 10° S visible
09 Mar 9.4 04:17:50 10° NE 04:20:36 21° E 04:23:22 10° SE visible
